This is the latest recevied weather packets stored in our database for station/object N5YHM-13. If no packets are shown the sender has not sent any weather packets the latest 10 day(s).
| Time | Temp. | Humidity | Pressure | Rain* | Wind** | Luminosity | Snow |
|---|---|---|---|---|---|---|---|
| 1787533596 | 25.56° C | 91% | 1015.8 hPa | 0 mm | - | 0 W/m² | - |
| 1787533292 | 25.56° C | 89% | 1015.6 hPa | 0 mm | - | 0 W/m² | - |
| 1787532986 | 25.56° C | 89% | 1015.9 hPa | 0 mm | - | 0 W/m² | - |
| 1787532682 | 25.56° C | 89% | 1015.7 hPa | 0 mm | - | 0 W/m² | - |
| 1787532377 | 25.56° C | 88% | 1015.7 hPa | 0 mm | - | 0 W/m² | - |
| 1787532073 | 25.56° C | 86% | 1015.7 hPa | 0 mm | - | 0 W/m² | - |
| 1787531769 | 25.56° C | 86% | 1015.7 hPa | 0 mm | - | 0 W/m² | - |
| 1787531465 | 26.11° C | 86% | 1015.7 hPa | 0 mm | - | 0 W/m² | - |
| 1787531160 | 26.11° C | 85% | 1015.8 hPa | 0 mm | - | 0 W/m² | - |
| 1787530855 | 26.11° C | 85% | 1015.6 hPa | 0 mm | - | 1 W/m² | - |
| 1787530550 | 26.11° C | 83% | 1015.7 hPa | 0 mm | - | 1 W/m² | - |
| 1787530245 | 26.67° C | 83% | 1015.8 hPa | 0 mm | - | 1 W/m² | - |
| 1787529941 | 26.67° C | 82% | 1015.8 hPa | 0 mm | - | 2 W/m² | - |
| 1787529636 | 26.67° C | 81% | 1015.6 hPa | 0 mm | - | 2 W/m² | - |
| 1787529331 | 26.67° C | 77% | 1015.5 hPa | 0 mm | - | 2 W/m² | - |
| 1787529025 | 27.22° C | 78% | 1015.7 hPa | 0 mm | - | 3 W/m² | - |
| 1787528717 | 27.22° C | 78% | 1015.6 hPa | 0 mm | - | 3 W/m² | - |
| 1787528416 | 27.22° C | 79% | 1015.7 hPa | 0 mm | - | 3 W/m² | - |
| 1787528113 | 27.78° C | 78% | 1015.8 hPa | 0 mm | - | 3 W/m² | - |
| 1787527809 | 27.78° C | 75% | 1015.7 hPa | 0 mm | - | 4 W/m² | - |
| 1787527504 | 27.78° C | 79% | 1015.7 hPa | 0 mm | - | 4 W/m² | - |
| 1787527199 | 27.78° C | 75% | 1015.6 hPa | 0 mm | - | 4 W/m² | - |
| 1787526895 | 27.78° C | 80% | 1015.6 hPa | 0 mm | - | 5 W/m² | - |
| 1787526590 | 27.78° C | 80% | 1015.5 hPa | 0 mm | - | 5 W/m² | - |
| 1787526287 | 28.33° C | 78% | 1015.7 hPa | 0 mm | - | 5 W/m² | - |
* Rain latest hour (hover to see other rain measurements)
** Current wind speed in m/s (hover to see current wind gust speed)